Location: Unspecified
(0.0000°N, 0.0000°E)
Time: 06:54:58
(UTC+00:00)

Transit 4A - Pass Details

Date: 11 October 2023
Orbit: 864 x 979 km, 66.8° (Epoch: 05 December)

Event Time Altitude Azimuth Distance (km) Brightness Sun altitude
Rises 06:32:01 0° 186° (S) 3,547 11.0 11.2°
Reaches altitude 10° 06:34:38 10° 179° (S) 2,621 10.4 11.9°
Maximum altitude 06:40:23 43° 109° (ESE) 1,303 9.9 13.3°
Drops below altitude 10° 06:46:15 10° 40° (NE) 2,683 10.9 14.7°
Sets 06:48:56 0° 33° (NNE) 3,639 11.4 15.4°
